{"data":{"norad_id":66409,"epoch":"2026-09-19T23:12:18.016416Z","epoch_age_seconds":173683,"freshness":"STALE","line1":"1 66409U 25256A   26262.96687519  .00000257  00000+0  77204-4 0  9991","line2":"2 66409  98.2424 327.1980 0014404  44.6755 315.5597 14.50278832 45633","mean_motion":14.50278832,"eccentricity":0.0014404,"inclination_deg":98.2424,"raan_deg":327.198,"arg_perigee_deg":44.6755,"mean_anomaly_deg":315.5597,"bstar":7.7204e-5,"rev_number":4563,"period_min":99.291251325387,"perigee_km":714.5069768349,"apogee_km":734.96893901369,"semimajor_km":7102.8749579243,"source":"CELESTRAK","updated_at":"2026-09-21T09:00:15.962107Z"}}